START_TIME,STEP,MOV.,M29,t_acc.,H22,t_acc.,H26,t_acc.,H30,t_acc.
1979-08-03 18:00:30.620 ,1,1,0.,24.0,0.,24.0,0.,24.0,0.,24.0
1979-08-03 18:00:54.620 ,2,1,1.,24.0,0.,24.0,0.,24.0,0.,24.0
1979-08-03 18:01:18.620 ,6,1,0.,24.0,0.,24.0,0.,24.0,0.,24.0
1979-08-03 18:01:42.620 ,5,1,0.,24.0,0.,24.0,0.,24.0,0.,24.0
1979-08-03 18:02:06.620 ,1,1,0.,24.0,0.,24.0,0.,24.0,0.,24.0
1979-08-03 18:02:30.620 ,2,1,0.,24.0,0.,24.0,0.,24.0,0.,24.0
1979-08-03 18:02:54.620 ,6,1,0.,24.0,0.,24.0,0.,24.0,0.,24.0
1979-08-03 18:03:18.620 ,5,1,0.,24.0,0.,24.0,0.,24.0,0.,24.0
1979-08-03 18:03:42.620 ,1,1,0.,24.0,0.,24.0,0.,24.0,0.,24.0
1979-08-03 18:04:06.620 ,2,1,0.,24.0,0.,24.0,0.,24.0,0.,24.0
1979-08-03 18:04:30.620 ,6,1,0.,24.0,0.,24.0,0.,24.0,0.,24.0
1979-08-03 18:04:54.620 ,5,1,0.,24.0,0.,24.0,0.,24.0,0.,24.0
1979-08-03 18:05:18.620 ,1,1,1.,24.0,0.,24.0,0.,24.0,0.,24.0
1979-08-03 18:05:42.620 ,0,0,0.,24.0,0.,24.0,0.,24.0,0.,24.0
1979-08-03 18:06:06.620 ,0,0,0.,24.0,0.,24.0,0.,24.0,0.,24.0
1979-08-03 18:06:30.620 ,5,1,0.,24.0,0.,24.0,0.,24.0,0.,24.0
1979-08-03 18:06:54.620 ,5,0,0.,24.0,0.,24.0,0.,24.0,0.,24.0
1979-08-03 18:07:18.620 ,4,1,0.,24.0,0.,24.0,0.,24.0,0.,24.0
1979-08-03 18:07:42.620 ,4,0,0.,24.0,0.,24.0,0.,24.0,0.,24.0
1979-08-03 18:08:06.620 ,3,1,0.,24.0,0.,24.0,0.,24.0,0.,24.0
1979-08-03 18:08:30.620 ,3,0,0.,24.0,0.,24.0,0.,24.0,0.,24.0
1979-08-03 18:08:54.620 ,2,1,0.,24.0,0.,24.0,0.,24.0,0.,24.0
1979-08-03 18:09:18.620 ,2,0,0.,24.0,0.,24.0,0.,24.0,0.,24.0
1979-08-03 18:09:42.620 ,1,1,0.,24.0,0.,24.0,0.,24.0,0.,24.0
1979-08-03 18:10:06.620 ,1,0,0.,24.0,0.,24.0,0.,24.0,0.,24.0
1979-08-03 18:10:30.620 ,0,1,0.,24.0,0.,24.0,0.,24.0,0.,24.0
1979-08-03 18:10:54.620 ,0,0,0.,24.0,0.,24.0,0.,24.0,0.,24.0
1979-08-03 18:11:18.620 ,0,1,0.,24.0,0.,24.0,0.,24.0,0.,24.0
1979-08-03 18:11:42.620 ,0,0,0.,24.0,0.,24.0,0.,24.0,0.,24.0
1979-08-03 18:12:06.620 ,1,1,0.,24.0,0.,24.0,0.,24.0,0.,24.0
1979-08-03 18:12:30.620 ,1,0,0.,24.0,0.,24.0,0.,24.0,0.,24.0
1979-08-03 18:12:54.620 ,2,1,0.,24.0,0.,24.0,0.,24.0,0.,24.0
1979-08-03 18:13:18.620 ,2,0,0.,24.0,0.,24.0,0.,24.0,0.,24.0
1979-08-03 18:13:42.620 ,3,1,0.,24.0,0.,24.0,0.,24.0,0.,24.0
1979-08-03 18:14:06.620 ,3,0,0.,24.0,0.,24.0,0.,24.0,0.,24.0
1979-08-03 18:14:30.620 ,4,1,0.,24.0,0.,24.0,0.,24.0,0.,24.0
1979-08-03 18:14:54.620 ,4,0,0.,24.0,0.,24.0,0.,24.0,0.,24.0
1979-08-03 18:15:18.620 ,5,1,0.,24.0,0.,24.0,0.,24.0,0.,24.0
1979-08-03 18:15:42.620 ,5,0,0.,24.0,0.,24.0,0.,24.0,0.,24.0
1979-08-03 18:16:06.620 ,6,1,0.,24.0,0.,24.0,0.,24.0,0.,24.0
1979-08-03 18:16:30.620 ,6,0,0.,24.0,0.,24.0,0.,24.0,0.,24.0
1979-08-03 18:16:54.620 ,7,1,0.,24.0,0.,24.0,0.,24.0,0.,24.0
1979-08-03 18:17:18.620 ,7,0,0.,24.0,0.,24.0,0.,24.0,0.,24.0
1979-08-03 18:17:42.620 ,7,1,0.,24.0,0.,24.0,0.,24.0,0.,24.0
1979-08-03 18:18:06.620 ,7,0,0.,24.0,0.,24.0,0.,24.0,0.,24.0
1979-08-03 18:18:30.620 ,6,1,0.,24.0,0.,24.0,0.,24.0,0.,24.0
1979-08-03 18:18:54.620 ,6,0,0.,24.0,0.,24.0,0.,24.0,0.,24.0
1979-08-03 18:19:18.620 ,5,1,0.,24.0,0.,24.0,0.,24.0,0.,24.0
1979-08-03 18:19:42.620 ,5,0,0.,24.0,0.,24.0,0.,24.0,0.,24.0
1979-08-03 18:20:06.620 ,4,1,0.,24.0,0.,24.0,0.,24.0,0.,24.0
1979-08-03 18:20:30.620 ,4,0,1.,24.0,0.,24.0,0.,24.0,0.,24.0
1979-08-03 18:20:54.620 ,3,1,0.,24.0,0.,24.0,0.,24.0,0.,24.0
1979-08-03 18:21:18.620 ,3,0,0.,24.0,0.,24.0,0.,24.0,0.,24.0
1979-08-03 18:21:42.620 ,2,1,0.,24.0,0.,24.0,0.,24.0,0.,24.0
1979-08-03 18:22:06.620 ,2,0,0.,24.0,0.,24.0,0.,24.0,0.,24.0
1979-08-03 18:22:30.620 ,1,1,0.,24.0,0.,24.0,0.,24.0,0.,24.0
1979-08-03 18:22:54.620 ,1,0,0.,24.0,0.,24.0,0.,24.0,0.,24.0
1979-08-03 18:23:18.620 ,0,1,0.,24.0,0.,24.0,0.,24.0,0.,24.0
1979-08-03 18:23:42.620 ,0,0,0.,24.0,0.,24.0,0.,24.0,0.,24.0
1979-08-03 18:24:06.620 ,0,1,0.,24.0,0.,24.0,0.,24.0,0.,24.0
1979-08-03 18:24:30.620 ,0,0,0.,24.0,0.,24.0,0.,24.0,0.,24.0
1979-08-03 18:24:54.620 ,1,1,0.,24.0,0.,24.0,0.,24.0,0.,24.0
1979-08-03 18:25:18.620 ,1,0,0.,24.0,0.,24.0,0.,24.0,0.,24.0
1979-08-03 18:25:42.620 ,2,1,0.,24.0,0.,24.0,0.,24.0,0.,24.0
1979-08-03 18:26:06.620 ,2,0,0.,24.0,0.,24.0,0.,24.0,0.,24.0
1979-08-03 18:26:30.620 ,3,1,0.,24.0,0.,24.0,0.,24.0,0.,24.0
1979-08-03 18:26:54.620 ,3,0,1.,24.0,0.,24.0,0.,24.0,0.,24.0
1979-08-03 18:27:18.620 ,4,1,0.,24.0,0.,24.0,0.,24.0,0.,24.0
1979-08-03 18:27:42.620 ,4,0,0.,24.0,0.,24.0,0.,24.0,0.,24.0
1979-08-03 18:28:06.620 ,5,1,0.,24.0,0.,24.0,0.,24.0,0.,24.0
1979-08-03 18:28:30.620 ,5,0,0.,24.0,0.,24.0,0.,24.0,0.,24.0
1979-08-03 18:28:54.620 ,6,1,0.,24.0,0.,24.0,0.,24.0,0.,24.0
1979-08-03 18:29:18.620 ,6,0,0.,24.0,0.,24.0,0.,24.0,0.,24.0
1979-08-03 18:29:42.620 ,7,1,0.,24.0,0.,24.0,0.,24.0,0.,24.0
1979-08-03 18:30:06.620 ,7,0,0.,24.0,0.,24.0,0.,24.0,0.,24.0
1979-08-03 18:30:30.620 ,7,1,0.,24.0,0.,24.0,0.,24.0,0.,24.0
1979-08-03 18:30:54.620 ,7,0,0.,24.0,0.,24.0,0.,24.0,0.,24.0
1979-08-03 18:31:18.620 ,6,1,0.,24.0,0.,24.0,0.,24.0,0.,24.0
1979-08-03 18:31:42.620 ,6,0,0.,24.0,0.,24.0,0.,24.0,0.,24.0
1979-08-03 18:32:06.620 ,5,1,0.,24.0,0.,24.0,0.,24.0,0.,24.0
1979-08-03 18:32:30.620 ,5,0,0.,24.0,0.,24.0,0.,24.0,0.,24.0
1979-08-03 18:32:54.620 ,4,1,0.,24.0,0.,24.0,0.,24.0,0.,24.0
1979-08-03 18:33:18.620 ,4,0,0.,24.0,0.,24.0,0.,24.0,0.,24.0
1979-08-03 18:33:42.620 ,3,1,0.,24.0,0.,24.0,0.,24.0,0.,24.0
1979-08-03 18:34:06.620 ,3,0,0.,24.0,0.,24.0,0.,24.0,0.,24.0
1979-08-03 18:34:30.620 ,2,1,0.,24.0,0.,24.0,0.,24.0,0.,24.0
1979-08-03 18:34:54.620 ,2,0,0.,24.0,0.,24.0,0.,24.0,0.,24.0
1979-08-03 18:35:18.620 ,1,1,0.,24.0,0.,24.0,0.,24.0,0.,24.0
1979-08-03 18:35:42.620 ,1,0,0.,24.0,0.,24.0,0.,24.0,0.,24.0
1979-08-03 18:36:06.620 ,0,1,0.,24.0,0.,24.0,0.,24.0,0.,24.0
1979-08-03 18:36:30.620 ,0,0,1.,24.0,0.,24.0,0.,24.0,0.,24.0
1979-08-03 18:36:54.620 ,0,1,0.,24.0,0.,24.0,0.,24.0,0.,24.0
1979-08-03 18:37:18.620 ,0,0,0.,24.0,0.,24.0,0.,24.0,0.,24.0
1979-08-03 18:37:42.620 ,1,1,0.,24.0,0.,24.0,0.,24.0,0.,24.0
1979-08-03 18:38:06.620 ,1,0,0.,24.0,0.,24.0,0.,24.0,0.,24.0
1979-08-03 18:38:30.620 ,2,1,0.,24.0,0.,24.0,0.,24.0,0.,24.0
1979-08-03 18:38:54.620 ,2,0,0.,24.0,0.,24.0,0.,24.0,0.,24.0
1979-08-03 18:39:18.620 ,3,1,0.,24.0,0.,24.0,0.,24.0,0.,24.0
1979-08-03 18:39:42.620 ,3,0,0.,24.0,0.,24.0,0.,24.0,0.,24.0
1979-08-03 18:40:06.620 ,4,1,0.,24.0,0.,24.0,0.,24.0,0.,24.0
1979-08-03 18:40:30.620 ,4,0,0.,24.0,0.,24.0,0.,24.0,0.,24.0
1979-08-03 18:40:54.620 ,5,1,1.,24.0,0.,24.0,0.,24.0,0.,24.0
1979-08-03 18:41:18.620 ,5,0,0.,24.0,0.,24.0,0.,24.0,0.,24.0
1979-08-03 18:41:42.620 ,6,1,0.,24.0,0.,24.0,0.,24.0,0.,24.0
1979-08-03 18:42:06.620 ,6,0,0.,24.0,0.,24.0,0.,24.0,0.,24.0
1979-08-03 18:42:30.620 ,7,0,0.,24.0,0.,24.0,0.,24.0,0.,24.0
1979-08-03 18:42:54.620 ,7,0,0.,24.0,0.,24.0,0.,24.0,0.,24.0
1979-08-03 18:43:18.620 ,5,1,0.,24.0,0.,24.0,0.,24.0,0.,24.0
1979-08-03 18:43:42.620 ,1,1,0.,24.0,0.,24.0,0.,24.0,0.,24.0
1979-08-03 18:44:06.620 ,2,1,0.,24.0,0.,24.0,0.,24.0,0.,24.0
1979-08-03 18:44:30.620 ,6,1,0.,24.0,0.,24.0,0.,24.0,0.,24.0
1979-08-03 18:44:54.620 ,5,1,0.,24.0,0.,24.0,0.,24.0,0.,24.0
1979-08-03 18:45:18.620 ,1,1,0.,24.0,0.,24.0,0.,24.0,0.,24.0
1979-08-03 18:45:42.620 ,2,1,0.,24.0,0.,24.0,0.,24.0,0.,24.0
1979-08-03 18:46:06.620 ,6,1,0.,24.0,0.,24.0,0.,24.0,0.,24.0
1979-08-03 18:46:30.620 ,5,1,0.,24.0,0.,24.0,0.,24.0,0.,24.0
1979-08-03 18:46:54.620 ,1,1,0.,24.0,0.,24.0,0.,24.0,0.,24.0
1979-08-03 18:47:18.620 ,2,1,0.,24.0,0.,24.0,0.,24.0,0.,24.0
1979-08-03 18:47:42.620 ,6,1,0.,24.0,0.,24.0,0.,24.0,0.,24.0
1979-08-03 18:48:06.620 ,5,1,0.,24.0,0.,24.0,0.,24.0,0.,24.0
1979-08-03 18:48:30.620 ,1,1,1.,24.0,0.,24.0,0.,24.0,0.,24.0
1979-08-03 18:48:54.620 ,2,1,0.,24.0,0.,24.0,0.,24.0,0.,24.0
1979-08-03 18:49:18.620 ,6,1,1.,24.0,0.,24.0,0.,24.0,0.,24.0
1979-08-03 18:49:42.620 ,5,1,0.,24.0,0.,24.0,0.,24.0,0.,24.0
1979-08-03 18:50:06.620 ,1,1,0.,24.0,0.,24.0,0.,24.0,0.,24.0
1979-08-03 18:50:30.620 ,2,1,0.,24.0,0.,24.0,0.,24.0,0.,24.0
1979-08-03 18:50:54.620 ,6,1,0.,24.0,0.,24.0,0.,24.0,0.,24.0
1979-08-03 18:51:18.620 ,5,1,1.,24.0,0.,24.0,0.,24.0,0.,24.0
1979-08-03 18:51:42.620 ,1,1,0.,24.0,0.,24.0,0.,24.0,0.,24.0
1979-08-03 18:52:06.620 ,2,1,0.,24.0,0.,24.0,0.,24.0,0.,24.0
1979-08-03 18:52:30.620 ,6,1,0.,24.0,0.,24.0,0.,24.0,0.,24.0
1979-08-03 18:52:54.620 ,5,1,0.,24.0,0.,24.0,0.,24.0,0.,24.0
1979-08-03 18:53:18.620 ,1,1,0.,24.0,0.,24.0,0.,24.0,0.,24.0
1979-08-03 18:53:42.620 ,0,0,0.,24.0,0.,24.0,0.,24.0,0.,24.0
1979-08-03 18:54:06.620 ,0,0,0.,24.0,0.,24.0,0.,24.0,0.,24.0
1979-08-03 18:54:30.620 ,5,1,0.,24.0,0.,24.0,0.,24.0,0.,24.0
1979-08-03 18:54:54.620 ,5,0,0.,24.0,0.,24.0,0.,24.0,0.,24.0
1979-08-03 18:55:18.620 ,4,1,0.,24.0,0.,24.0,0.,24.0,0.,24.0
1979-08-03 18:55:42.620 ,4,0,0.,24.0,0.,24.0,0.,24.0,0.,24.0
1979-08-03 18:56:06.620 ,3,1,0.,24.0,0.,24.0,0.,24.0,0.,24.0
1979-08-03 18:56:30.620 ,3,0,0.,24.0,0.,24.0,0.,24.0,0.,24.0
1979-08-03 18:56:54.620 ,2,1,0.,24.0,0.,24.0,0.,24.0,0.,24.0
1979-08-03 18:57:18.620 ,2,0,0.,24.0,0.,24.0,0.,24.0,0.,24.0
1979-08-03 18:57:42.620 ,1,1,0.,24.0,0.,24.0,0.,24.0,0.,24.0
1979-08-03 18:58:06.620 ,1,0,0.,24.0,0.,24.0,0.,24.0,0.,24.0
1979-08-03 18:58:30.620 ,0,1,0.,24.0,0.,24.0,0.,24.0,0.,24.0
1979-08-03 18:58:54.620 ,0,0,0.,24.0,0.,24.0,0.,24.0,0.,24.0
1979-08-03 18:59:18.620 ,0,1,0.,24.0,0.,24.0,0.,24.0,0.,24.0
1979-08-03 18:59:42.620 ,0,0,0.,24.0,0.,24.0,0.,24.0,0.,24.0
1979-08-03 19:00:06.620 ,1,1,0.,24.0,0.,24.0,0.,24.0,0.,24.0
1979-08-03 19:00:30.620 ,1,0,0.,24.0,0.,24.0,0.,24.0,0.,24.0
1979-08-03 19:00:54.620 ,2,1,0.,24.0,0.,24.0,0.,24.0,0.,24.0
1979-08-03 19:01:18.620 ,2,0,0.,24.0,0.,24.0,0.,24.0,0.,24.0
1979-08-03 19:01:42.620 ,3,1,0.,24.0,0.,24.0,0.,24.0,0.,24.0
1979-08-03 19:02:06.620 ,3,0,0.,24.0,0.,24.0,0.,24.0,0.,24.0
1979-08-03 19:02:30.620 ,4,1,0.,24.0,0.,24.0,0.,24.0,0.,24.0
1979-08-03 19:02:54.620 ,4,0,0.,24.0,0.,24.0,0.,24.0,0.,24.0
1979-08-03 19:03:18.620 ,5,1,0.,24.0,0.,24.0,0.,24.0,0.,24.0
1979-08-03 19:03:42.620 ,5,0,0.,24.0,0.,24.0,0.,24.0,0.,24.0
1979-08-03 19:04:06.620 ,6,1,0.,24.0,0.,24.0,0.,24.0,0.,24.0
1979-08-03 19:04:30.620 ,6,0,1.,24.0,0.,24.0,0.,24.0,0.,24.0
1979-08-03 19:04:54.620 ,7,1,0.,24.0,0.,24.0,0.,24.0,0.,24.0
1979-08-03 19:05:18.620 ,7,0,0.,24.0,0.,24.0,0.,24.0,0.,24.0
1979-08-03 19:05:42.620 ,7,1,0.,24.0,0.,24.0,0.,24.0,0.,24.0
1979-08-03 19:06:06.620 ,7,0,0.,24.0,0.,24.0,0.,24.0,0.,24.0
1979-08-03 19:06:30.620 ,6,1,0.,24.0,0.,24.0,0.,24.0,0.,24.0
1979-08-03 19:06:54.620 ,6,0,0.,24.0,0.,24.0,0.,24.0,0.,24.0
1979-08-03 19:07:18.620 ,5,1,0.,24.0,0.,24.0,0.,24.0,0.,24.0
1979-08-03 19:07:42.620 ,5,0,0.,24.0,0.,24.0,0.,24.0,0.,24.0
1979-08-03 19:08:06.620 ,4,1,0.,24.0,0.,24.0,0.,24.0,0.,24.0
1979-08-03 19:08:30.620 ,4,0,0.,24.0,0.,24.0,0.,24.0,0.,24.0
1979-08-03 19:08:54.620 ,3,1,0.,24.0,0.,24.0,0.,24.0,0.,24.0
1979-08-03 19:09:18.620 ,3,0,0.,24.0,0.,24.0,0.,24.0,0.,24.0
1979-08-03 19:09:42.620 ,2,1,0.,24.0,0.,24.0,0.,24.0,0.,24.0
1979-08-03 19:10:06.620 ,2,0,0.,24.0,0.,24.0,0.,24.0,0.,24.0
1979-08-03 19:10:30.620 ,1,1,0.,24.0,0.,24.0,0.,24.0,0.,24.0
1979-08-03 19:10:54.620 ,1,0,0.,24.0,0.,24.0,0.,24.0,0.,24.0
1979-08-03 19:11:18.620 ,0,1,0.,24.0,0.,24.0,0.,24.0,0.,24.0
1979-08-03 19:11:42.620 ,0,0,0.,24.0,0.,24.0,0.,24.0,0.,24.0
1979-08-03 19:12:06.620 ,0,1,0.,24.0,0.,24.0,0.,24.0,0.,24.0
1979-08-03 19:12:30.620 ,0,0,0.,24.0,0.,24.0,0.,24.0,0.,24.0
1979-08-03 19:12:54.620 ,1,1,0.,24.0,0.,24.0,0.,24.0,0.,24.0
1979-08-03 19:13:18.620 ,1,0,0.,24.0,0.,24.0,0.,24.0,0.,24.0
1979-08-03 19:13:42.620 ,2,1,0.,24.0,0.,24.0,0.,24.0,0.,24.0
1979-08-03 19:14:06.620 ,2,0,1.,24.0,0.,24.0,0.,24.0,0.,24.0
1979-08-03 19:14:30.620 ,3,1,0.,24.0,0.,24.0,0.,24.0,0.,24.0
1979-08-03 19:14:54.620 ,3,0,0.,24.0,0.,24.0,0.,24.0,0.,24.0
1979-08-03 19:15:18.620 ,4,1,0.,24.0,0.,24.0,0.,24.0,0.,24.0
1979-08-03 19:15:42.620 ,4,0,0.,24.0,0.,24.0,0.,24.0,1.,24.0
1979-08-03 19:16:06.620 ,5,1,1.,24.0,0.,24.0,0.,24.0,0.,24.0
1979-08-03 19:16:30.620 ,5,0,0.,24.0,0.,24.0,0.,24.0,0.,24.0
1979-08-03 19:16:54.620 ,6,1,0.,24.0,0.,24.0,0.,24.0,0.,24.0
1979-08-03 19:17:18.620 ,6,0,0.,24.0,0.,24.0,0.,24.0,0.,24.0
1979-08-03 19:17:42.620 ,7,1,0.,24.0,0.,24.0,0.,24.0,0.,24.0
1979-08-03 19:18:06.620 ,7,0,0.,24.0,0.,24.0,0.,24.0,0.,24.0
1979-08-03 19:18:30.620 ,7,1,0.,24.0,0.,24.0,0.,24.0,0.,24.0
1979-08-03 19:18:54.620 ,7,0,1.,24.0,0.,24.0,0.,24.0,0.,24.0
1979-08-03 19:19:18.620 ,6,1,0.,24.0,0.,24.0,0.,24.0,0.,24.0
1979-08-03 19:19:42.620 ,6,0,1.,24.0,0.,24.0,0.,24.0,0.,24.0
1979-08-03 19:20:06.620 ,5,1,0.,24.0,0.,24.0,0.,24.0,0.,24.0
1979-08-03 19:20:30.620 ,5,0,0.,24.0,0.,24.0,0.,24.0,0.,24.0
1979-08-03 19:20:54.620 ,4,1,0.,24.0,0.,24.0,0.,24.0,0.,24.0
1979-08-03 19:21:18.620 ,4,0,0.,24.0,0.,24.0,0.,24.0,0.,24.0
1979-08-03 19:21:42.620 ,3,1,0.,24.0,0.,24.0,0.,24.0,0.,24.0
1979-08-03 19:22:06.620 ,3,0,0.,24.0,0.,24.0,0.,24.0,0.,24.0
1979-08-03 19:22:30.620 ,2,1,1.,24.0,0.,24.0,0.,24.0,0.,24.0
1979-08-03 19:22:54.620 ,2,0,0.,24.0,0.,24.0,0.,24.0,0.,24.0
1979-08-03 19:23:18.620 ,1,1,0.,24.0,0.,24.0,0.,24.0,0.,24.0
1979-08-03 19:23:42.620 ,1,0,0.,24.0,0.,24.0,0.,24.0,0.,24.0
1979-08-03 19:24:06.620 ,0,1,0.,24.0,0.,24.0,0.,24.0,0.,24.0
1979-08-03 19:24:30.620 ,0,0,0.,24.0,0.,24.0,0.,24.0,0.,24.0
1979-08-03 19:24:54.620 ,0,1,0.,24.0,0.,24.0,0.,24.0,0.,24.0
1979-08-03 19:25:18.620 ,0,0,0.,24.0,0.,24.0,0.,24.0,0.,24.0
1979-08-03 19:25:42.620 ,1,1,0.,24.0,0.,24.0,0.,24.0,0.,24.0
1979-08-03 19:26:06.620 ,1,0,0.,24.0,0.,24.0,0.,24.0,0.,24.0
1979-08-03 19:26:30.620 ,2,1,0.,24.0,0.,24.0,0.,24.0,0.,24.0
1979-08-03 19:26:54.620 ,2,0,0.,24.0,0.,24.0,0.,24.0,0.,24.0
1979-08-03 19:27:18.620 ,3,1,0.,24.0,0.,24.0,0.,24.0,0.,24.0
1979-08-03 19:27:42.620 ,3,0,0.,24.0,0.,24.0,0.,24.0,0.,24.0
1979-08-03 19:28:06.620 ,4,1,1.,24.0,0.,24.0,0.,24.0,0.,24.0
1979-08-03 19:28:30.620 ,4,0,0.,24.0,0.,24.0,0.,24.0,0.,24.0
1979-08-03 19:28:54.620 ,5,1,0.,24.0,0.,24.0,0.,24.0,0.,24.0
1979-08-03 19:29:18.620 ,5,0,0.,24.0,0.,24.0,0.,24.0,0.,24.0
1979-08-03 19:29:42.620 ,6,1,0.,24.0,0.,24.0,0.,24.0,0.,24.0
1979-08-03 19:30:06.620 ,6,0,0.,24.0,0.,24.0,0.,24.0,0.,24.0
1979-08-03 19:30:30.620 ,7,0,0.,24.0,0.,24.0,0.,24.0,0.,24.0
1979-08-03 19:30:54.620 ,7,0,0.,24.0,0.,24.0,0.,24.0,0.,24.0
1979-08-03 19:31:18.620 ,5,1,0.,24.0,0.,24.0,0.,24.0,0.,24.0
1979-08-03 19:31:42.620 ,1,1,0.,24.0,0.,24.0,0.,24.0,0.,24.0
1979-08-03 19:32:06.620 ,2,1,0.,24.0,0.,24.0,0.,24.0,0.,24.0
1979-08-03 19:32:30.620 ,6,1,0.,24.0,0.,24.0,0.,24.0,0.,24.0
1979-08-03 19:32:54.620 ,5,1,0.,24.0,0.,24.0,0.,24.0,0.,24.0
1979-08-03 19:33:18.620 ,1,1,0.,24.0,0.,24.0,0.,24.0,0.,24.0
1979-08-03 19:33:42.620 ,2,1,0.,24.0,0.,24.0,0.,24.0,0.,24.0
1979-08-03 19:34:06.620 ,6,1,0.,24.0,0.,24.0,0.,24.0,0.,24.0
1979-08-03 19:34:30.620 ,5,1,0.,24.0,0.,24.0,0.,24.0,0.,24.0
1979-08-03 19:34:54.620 ,1,1,0.,24.0,0.,24.0,0.,24.0,0.,24.0
1979-08-03 19:35:18.620 ,2,1,0.,24.0,0.,24.0,0.,24.0,0.,24.0
1979-08-03 19:35:42.620 ,6,1,0.,24.0,0.,24.0,0.,24.0,0.,24.0
1979-08-03 19:36:06.620 ,5,1,0.,24.0,0.,24.0,0.,24.0,0.,24.0
1979-08-03 19:36:30.620 ,1,1,0.,24.0,0.,24.0,0.,24.0,0.,24.0
1979-08-03 19:36:54.620 ,2,1,0.,24.0,0.,24.0,0.,24.0,0.,24.0
1979-08-03 19:37:18.620 ,6,1,0.,24.0,0.,24.0,0.,24.0,0.,24.0
1979-08-03 19:37:42.620 ,5,1,0.,24.0,0.,24.0,0.,24.0,0.,24.0
1979-08-03 19:38:06.620 ,1,1,0.,24.0,0.,24.0,0.,24.0,0.,24.0
1979-08-03 19:38:30.620 ,2,1,0.,24.0,0.,24.0,0.,24.0,0.,24.0
1979-08-03 19:38:54.620 ,6,1,0.,24.0,0.,24.0,0.,24.0,0.,24.0
1979-08-03 19:39:18.620 ,5,1,1.,24.0,0.,24.0,0.,24.0,0.,24.0
1979-08-03 19:39:42.620 ,1,1,0.,24.0,0.,24.0,0.,24.0,0.,24.0
1979-08-03 19:40:06.620 ,2,1,1.,24.0,0.,24.0,0.,24.0,0.,24.0
1979-08-03 19:40:30.620 ,6,1,0.,24.0,0.,24.0,0.,24.0,0.,24.0
1979-08-03 19:40:54.620 ,5,1,0.,24.0,0.,24.0,0.,24.0,0.,24.0
1979-08-03 19:41:18.620 ,1,1,0.,24.0,0.,24.0,0.,24.0,0.,24.0
1979-08-03 19:41:42.620 ,0,0,0.,24.0,0.,24.0,0.,24.0,0.,24.0
1979-08-03 19:42:06.620 ,0,0,0.,24.0,0.,24.0,0.,24.0,0.,24.0
1979-08-03 19:42:30.620 ,5,1,0.,24.0,0.,24.0,0.,24.0,0.,24.0
1979-08-03 19:42:54.620 ,5,0,0.,24.0,0.,24.0,0.,24.0,0.,24.0
1979-08-03 19:43:18.620 ,4,1,0.,24.0,0.,24.0,0.,24.0,0.,24.0
1979-08-03 19:43:42.620 ,4,0,0.,24.0,0.,24.0,0.,24.0,0.,24.0
1979-08-03 19:44:06.620 ,3,1,0.,24.0,0.,24.0,0.,24.0,0.,24.0
1979-08-03 19:44:30.620 ,3,0,0.,24.0,0.,24.0,0.,24.0,0.,24.0
1979-08-03 19:44:54.620 ,2,1,0.,24.0,0.,24.0,0.,24.0,0.,24.0
1979-08-03 19:45:18.620 ,2,0,0.,24.0,0.,24.0,0.,24.0,0.,24.0
1979-08-03 19:45:42.620 ,1,1,0.,24.0,0.,24.0,0.,24.0,0.,24.0
1979-08-03 19:46:06.620 ,1,0,0.,24.0,0.,24.0,0.,24.0,0.,24.0
1979-08-03 19:46:30.620 ,0,1,0.,24.0,0.,24.0,0.,24.0,0.,24.0
1979-08-03 19:46:54.620 ,0,0,0.,24.0,0.,24.0,0.,24.0,0.,24.0
1979-08-03 19:47:18.620 ,0,1,0.,24.0,0.,24.0,0.,24.0,0.,24.0
1979-08-03 19:47:42.620 ,0,0,0.,24.0,0.,24.0,0.,24.0,0.,24.0
1979-08-03 19:48:06.620 ,1,1,0.,24.0,0.,24.0,0.,24.0,0.,24.0
1979-08-03 19:48:30.620 ,1,0,0.,24.0,0.,24.0,0.,24.0,0.,24.0
1979-08-03 19:48:54.620 ,2,1,0.,24.0,0.,24.0,0.,24.0,0.,24.0
1979-08-03 19:49:18.620 ,2,0,0.,24.0,0.,24.0,0.,24.0,0.,24.0
1979-08-03 19:49:42.620 ,3,1,0.,24.0,0.,24.0,0.,24.0,0.,24.0
1979-08-03 19:50:06.620 ,3,0,0.,24.0,0.,24.0,0.,24.0,0.,24.0
1979-08-03 19:50:30.620 ,4,1,0.,24.0,0.,24.0,0.,24.0,0.,24.0
1979-08-03 19:50:54.620 ,4,0,0.,24.0,0.,24.0,0.,24.0,0.,24.0
1979-08-03 19:51:18.620 ,5,1,0.,24.0,0.,24.0,0.,24.0,0.,24.0
1979-08-03 19:51:42.620 ,5,0,0.,24.0,0.,24.0,0.,24.0,0.,24.0
1979-08-03 19:52:06.620 ,6,1,0.,24.0,0.,24.0,0.,24.0,0.,24.0
1979-08-03 19:52:30.620 ,6,0,0.,24.0,0.,24.0,0.,24.0,0.,24.0
1979-08-03 19:52:54.620 ,7,1,0.,24.0,0.,24.0,0.,24.0,0.,24.0
1979-08-03 19:53:18.620 ,7,0,0.,24.0,0.,24.0,0.,24.0,0.,24.0
1979-08-03 19:53:42.620 ,7,1,0.,24.0,0.,24.0,0.,24.0,0.,24.0
1979-08-03 19:54:06.620 ,7,0,0.,24.0,0.,24.0,0.,24.0,0.,24.0
1979-08-03 19:54:30.620 ,6,1,0.,24.0,0.,24.0,0.,24.0,0.,24.0
1979-08-03 19:54:54.620 ,6,0,0.,24.0,0.,24.0,0.,24.0,0.,24.0
1979-08-03 19:55:18.620 ,5,1,0.,24.0,0.,24.0,0.,24.0,0.,24.0
1979-08-03 19:55:42.620 ,5,0,0.,24.0,0.,24.0,0.,24.0,0.,24.0
1979-08-03 19:56:06.620 ,4,1,0.,24.0,0.,24.0,0.,24.0,0.,24.0
1979-08-03 19:56:30.620 ,4,0,0.,24.0,0.,24.0,0.,24.0,0.,24.0
1979-08-03 19:56:54.620 ,3,1,0.,24.0,0.,24.0,0.,24.0,0.,24.0
1979-08-03 19:57:18.620 ,3,0,0.,24.0,0.,24.0,0.,24.0,0.,24.0
1979-08-03 19:57:42.620 ,2,1,0.,24.0,0.,24.0,0.,24.0,0.,24.0
1979-08-03 19:58:06.620 ,2,0,0.,24.0,0.,24.0,0.,24.0,0.,24.0
1979-08-03 19:58:30.620 ,1,1,0.,24.0,0.,24.0,0.,24.0,0.,24.0
1979-08-03 19:58:54.620 ,1,0,0.,24.0,0.,24.0,0.,24.0,0.,24.0
1979-08-03 19:59:18.620 ,0,1,1.,24.0,0.,24.0,0.,24.0,0.,24.0
1979-08-03 19:59:42.620 ,0,0,0.,24.0,0.,24.0,0.,24.0,0.,24.0
1979-08-03 20:00:06.620 ,0,1,0.,24.0,0.,24.0,0.,24.0,0.,24.0
1979-08-03 20:00:30.620 ,0,0,0.,24.0,0.,24.0,0.,24.0,0.,24.0
1979-08-03 20:00:54.620 ,1,1,0.,24.0,0.,24.0,0.,24.0,0.,24.0
1979-08-03 20:01:18.620 ,1,0,0.,24.0,0.,24.0,0.,24.0,0.,24.0
1979-08-03 20:01:42.620 ,2,1,0.,24.0,0.,24.0,0.,24.0,0.,24.0
1979-08-03 20:02:06.620 ,2,0,0.,24.0,0.,24.0,0.,24.0,0.,24.0
1979-08-03 20:02:30.620 ,3,1,0.,24.0,0.,24.0,0.,24.0,0.,24.0
1979-08-03 20:02:54.620 ,3,0,0.,24.0,0.,24.0,0.,24.0,0.,24.0
1979-08-03 20:03:18.620 ,4,1,0.,24.0,0.,24.0,0.,24.0,0.,24.0
1979-08-03 20:03:42.620 ,4,0,0.,24.0,0.,24.0,0.,24.0,0.,24.0
1979-08-03 20:04:06.620 ,5,1,0.,24.0,0.,24.0,0.,24.0,0.,24.0
1979-08-03 20:04:30.620 ,5,0,0.,24.0,0.,24.0,0.,24.0,0.,24.0
1979-08-03 20:04:54.620 ,6,1,0.,24.0,0.,24.0,0.,24.0,0.,24.0
1979-08-03 20:05:18.620 ,6,0,0.,24.0,0.,24.0,0.,24.0,0.,24.0
1979-08-03 20:05:42.620 ,7,1,0.,24.0,0.,24.0,0.,24.0,0.,24.0
1979-08-03 20:06:06.620 ,7,0,0.,24.0,0.,24.0,0.,24.0,0.,24.0
1979-08-03 20:06:30.620 ,7,1,0.,24.0,0.,24.0,0.,24.0,0.,24.0
1979-08-03 20:06:54.620 ,7,0,0.,24.0,0.,24.0,0.,24.0,0.,24.0
1979-08-03 20:07:18.620 ,6,1,0.,24.0,0.,24.0,0.,24.0,0.,24.0
1979-08-03 20:07:42.620 ,6,0,0.,24.0,0.,24.0,0.,24.0,0.,24.0
1979-08-03 20:08:06.620 ,5,1,0.,24.0,0.,24.0,0.,24.0,0.,24.0
1979-08-03 20:08:30.620 ,5,0,0.,24.0,0.,24.0,0.,24.0,0.,24.0
1979-08-03 20:08:54.620 ,4,1,0.,24.0,0.,24.0,0.,24.0,0.,24.0
1979-08-03 20:09:18.620 ,4,0,0.,24.0,0.,24.0,0.,24.0,0.,24.0
1979-08-03 20:09:42.620 ,3,1,0.,24.0,0.,24.0,0.,24.0,0.,24.0
1979-08-03 20:10:06.620 ,3,0,0.,24.0,0.,24.0,0.,24.0,0.,24.0
1979-08-03 20:10:30.620 ,2,1,0.,24.0,0.,24.0,0.,24.0,0.,24.0
1979-08-03 20:10:54.620 ,2,0,0.,24.0,0.,24.0,0.,24.0,0.,24.0
1979-08-03 20:11:18.620 ,1,1,0.,24.0,0.,24.0,0.,24.0,0.,24.0
1979-08-03 20:11:42.620 ,1,0,0.,24.0,0.,24.0,0.,24.0,0.,24.0
1979-08-03 20:12:06.620 ,0,1,0.,24.0,0.,24.0,0.,24.0,0.,24.0
1979-08-03 20:12:30.620 ,0,0,0.,24.0,0.,24.0,0.,24.0,0.,24.0
1979-08-03 20:12:54.620 ,0,1,0.,24.0,0.,24.0,0.,24.0,0.,24.0
1979-08-03 20:13:18.620 ,0,0,0.,24.0,0.,24.0,0.,24.0,0.,24.0
1979-08-03 20:13:42.620 ,1,1,0.,24.0,0.,24.0,0.,24.0,0.,24.0
1979-08-03 20:14:06.620 ,1,0,0.,24.0,0.,24.0,0.,24.0,0.,24.0
1979-08-03 20:14:30.620 ,2,1,0.,24.0,0.,24.0,0.,24.0,0.,24.0
1979-08-03 20:14:54.620 ,2,0,0.,24.0,0.,24.0,0.,24.0,0.,24.0
1979-08-03 20:15:18.620 ,3,1,0.,24.0,0.,24.0,0.,24.0,0.,24.0
1979-08-03 20:15:42.620 ,3,0,0.,24.0,0.,24.0,0.,24.0,0.,24.0
1979-08-03 20:16:06.620 ,4,1,0.,24.0,0.,24.0,0.,24.0,0.,24.0
1979-08-03 20:16:30.620 ,4,0,0.,24.0,0.,24.0,0.,24.0,0.,24.0
1979-08-03 20:16:54.620 ,5,1,0.,24.0,0.,24.0,0.,24.0,0.,24.0
1979-08-03 20:17:18.620 ,5,0,0.,24.0,0.,24.0,0.,24.0,0.,24.0
1979-08-03 20:17:42.620 ,6,1,0.,24.0,0.,24.0,0.,24.0,0.,24.0
1979-08-03 20:18:06.620 ,6,0,0.,24.0,0.,24.0,0.,24.0,0.,24.0
1979-08-03 20:18:30.620 ,7,0,0.,24.0,0.,24.0,0.,24.0,0.,24.0
1979-08-03 20:18:54.620 ,7,0,0.,24.0,0.,24.0,0.,24.0,0.,24.0
1979-08-03 20:19:18.620 ,5,1,0.,24.0,0.,24.0,0.,24.0,0.,24.0
1979-08-03 20:19:42.620 ,1,1,0.,24.0,0.,24.0,0.,24.0,0.,24.0
1979-08-03 20:20:06.620 ,2,1,0.,24.0,0.,24.0,0.,24.0,0.,24.0
1979-08-03 20:20:30.620 ,6,1,0.,24.0,0.,24.0,0.,24.0,0.,24.0
1979-08-03 20:20:54.620 ,5,1,0.,24.0,0.,24.0,0.,24.0,0.,24.0
1979-08-03 20:21:18.620 ,1,1,0.,24.0,0.,24.0,0.,24.0,0.,24.0
1979-08-03 20:21:42.620 ,2,1,0.,24.0,0.,24.0,0.,24.0,0.,24.0
1979-08-03 20:22:06.620 ,6,1,0.,24.0,0.,24.0,0.,24.0,0.,24.0
1979-08-03 20:22:30.620 ,5,1,0.,24.0,0.,24.0,0.,24.0,0.,24.0
1979-08-03 20:22:54.620 ,1,1,0.,24.0,0.,24.0,0.,24.0,0.,24.0
1979-08-03 20:23:18.620 ,2,1,0.,24.0,0.,24.0,0.,24.0,0.,24.0
1979-08-03 20:23:42.620 ,6,1,0.,24.0,0.,24.0,0.,24.0,0.,24.0
1979-08-03 20:24:06.620 ,5,1,0.,24.0,0.,24.0,0.,24.0,0.,24.0
1979-08-03 20:24:30.620 ,1,1,0.,24.0,0.,24.0,0.,24.0,0.,24.0
1979-08-03 20:24:54.620 ,2,1,0.,24.0,0.,24.0,0.,24.0,0.,24.0
1979-08-03 20:25:18.620 ,6,1,0.,24.0,0.,24.0,0.,24.0,0.,24.0
1979-08-03 20:25:42.620 ,5,1,0.,24.0,0.,24.0,0.,24.0,0.,24.0
1979-08-03 20:26:06.620 ,1,1,0.,24.0,0.,24.0,0.,24.0,0.,24.0
1979-08-03 20:26:30.620 ,2,1,0.,24.0,0.,24.0,0.,24.0,0.,24.0
1979-08-03 20:26:54.620 ,6,1,0.,24.0,0.,24.0,0.,24.0,0.,24.0
1979-08-03 20:27:18.620 ,5,1,0.,24.0,0.,24.0,0.,24.0,0.,24.0
1979-08-03 20:27:42.620 ,1,1,0.,24.0,0.,24.0,0.,24.0,0.,24.0
1979-08-03 20:28:06.620 ,2,1,0.,24.0,0.,24.0,0.,24.0,0.,24.0
1979-08-03 20:28:30.620 ,6,1,0.,24.0,0.,24.0,0.,24.0,0.,24.0
1979-08-03 20:28:54.620 ,5,1,0.,24.0,0.,24.0,0.,24.0,0.,24.0
1979-08-03 20:29:18.620 ,1,1,0.,24.0,0.,24.0,0.,24.0,0.,24.0
1979-08-03 20:29:42.620 ,0,0,0.,24.0,0.,24.0,0.,24.0,0.,24.0
1979-08-03 20:30:06.620 ,0,0,0.,24.0,0.,24.0,0.,24.0,0.,24.0
1979-08-03 20:30:30.620 ,5,1,0.,24.0,0.,24.0,0.,24.0,0.,24.0
1979-08-03 20:30:54.620 ,5,0,0.,24.0,0.,24.0,0.,24.0,0.,24.0
1979-08-03 20:31:18.620 ,4,1,0.,24.0,0.,24.0,0.,24.0,0.,24.0
1979-08-03 20:31:42.620 ,4,0,0.,24.0,0.,24.0,0.,24.0,0.,24.0
1979-08-03 20:32:06.620 ,3,1,1.,24.0,0.,24.0,0.,24.0,0.,24.0
1979-08-03 20:32:30.620 ,3,0,0.,24.0,0.,24.0,0.,24.0,0.,24.0
1979-08-03 20:32:54.620 ,2,1,0.,24.0,0.,24.0,0.,24.0,0.,24.0
1979-08-03 20:33:18.620 ,2,0,0.,24.0,0.,24.0,0.,24.0,0.,24.0
1979-08-03 20:33:42.620 ,1,1,0.,24.0,0.,24.0,0.,24.0,0.,24.0
1979-08-03 20:34:06.620 ,1,0,0.,24.0,0.,24.0,0.,24.0,0.,24.0
1979-08-03 20:34:30.620 ,0,1,0.,24.0,0.,24.0,0.,24.0,0.,24.0